Temporada 2023 · Ronda 10

British Grand Prix

2023-07-09 · Silverstone Circuito · UK · British Grand Prix · 52Lap · 306.198km
Red Bull 1:25:16.938
Victoria de equipo 34pt P1 · P6
McLaren +3.798
Mercedes +6.783
Vuelta rápida
1:30.275 · L42
Abandono
2
Kevin Magnussen L31 Esteban Ocon L9
Clima
21°/31°
media aire/pista · seco · humedad 56%
Coche de seguridad
2
desplegado en la vuelta L33
Uso de neumáticos Dirección de carrera
Storylines · This Grand Prix & circuit
Más victorias en este GP
Lewis Hamilton activo 9 victorias
Jim Clark 5 victorias
Alain Prost 5 victorias
Conversión pole-victoria 22/61 36.1%
Most DNFs · all-time P13
Most SC/VSC · all-time P1
Final más ajustado · all-time P34
Most lead changes · all-time P4
Circuito Info
Silverstone Circuito Silverstone, UK
52Lap 306.198km 61 carreras held (1950–) Récord de vuelta 1:18.739 · Michael Schumacher (2004)
Récords Watch · Active drivers ranked at this Grand Prix
P1 Lewis Hamilton 9 victorias · GP #1
P8 Fernando Alonso 2 victorias · → Michael Schumacher -1
P17 Charles Leclerc 1 victorias · → Sebastian Vettel -1
P1 Fernando Alonso 23 salidas · GP #1
P2 Lewis Hamilton 20 salidas · → Fernando Alonso -3
P14 Nico Hülkenberg 14 salidas · → Sebastian Vettel -1
Carrera Trace · position by lap
VSC · vueltas 33–38 salida parada SG 1 5 9 13 17 21 25 29 33 37 41 45 49 FIN Verstappen · parada en boxes L33 Verstappen VER Verstappen VER Norris · parada en boxes L33 Norris NOR Norris NOR Hamilton · parada en boxes L33 Hamilton HAM Hamilton HAM Piastri · parada en boxes L29 Piastri PIA Piastri PIA Russell · parada en boxes L28 Russell RUS Russell RUS Pérez · parada en boxes L28 Pérez PER Pérez PER Alonso · parada en boxes L33 Alonso ALO Alonso ALO Albon · parada en boxes L32 Albon ALB Albon ALB Leclerc · parada en boxes L18 Leclerc · parada en boxes L32 Leclerc LEC Leclerc LEC Sainz · parada en boxes L26 Sainz SAI Sainz SAI Sargeant · parada en boxes L29 Sargeant SAR Sargeant SAR Bottas · parada en boxes L32 Bottas BOT Bottas BOT Hülkenberg · parada en boxes L7 Hülkenberg · parada en boxes L32 Hülkenberg HUL Hülkenberg HUL Stroll · parada en boxes L31 Stroll · +5s sumado tras la carrera Stroll STR Stroll STR Zhou · parada en boxes L24 Zhou · parada en boxes L33 Zhou · parada en boxes L36 Zhou ZHO Zhou ZHO Tsunoda · parada en boxes L14 Tsunoda · parada en boxes L32 Tsunoda TSU Tsunoda TSU de Vries · parada en boxes L27 de Vries · parada en boxes L32 de Vries DEV de Vries DEV Gasly · parada en boxes L31 Gasly · detenido L46 · clasificado P18 Gasly GAS Gasly GAS Magnussen · abandono L31 Magnussen MAG Magnussen MAG Ocon · abandono L9 Ocon OCO Ocon OCO
SC·VSC parada en boxes sanción cumplida en boxes SG Parrilla de salida FIN clasificación oficial sanción sumada tras la carrera coche detenido posición en cada vuelta (desde 1996)
PosPilotoTeamParrillaVueltaTiempo / EstadoPuntos
1 1 Max Verstappen FL Red Bull 1 52 1:25:16.938 26
2 4 Lando Norris McLaren 2 52 +3.798 18
3 44 Lewis Hamilton Mercedes 7 52 +6.783 15
4 81 Oscar Piastri McLaren 3 52 +7.776 12
5 63 George Russell Mercedes 6 52 +11.206 10
6 11 Sergio Pérez Red Bull 15 52 +12.882 8
7 14 Fernando Alonso Aston Martin 9 52 +17.193 6
8 23 Alexander Albon Williams 8 52 +17.878 4
9 16 Charles Leclerc Ferrari 4 52 +18.689 2
10 55 Carlos Sainz Ferrari 5 52 +19.448 1
11 2 Logan Sargeant Williams 14 52 +23.632
12 77 Valtteri Bottas Alfa Romeo 20 52 +25.830
13 27 Nico Hülkenberg Haas F1 Team 11 52 +26.663
14 18 Lance Stroll Aston Martin 12 52 +27.483
15 24 Guanyu Zhou Alfa Romeo 17 52 +29.820
16 22 Yuki Tsunoda AlphaTauri 16 52 +31.225
17 21 Nyck de Vries AlphaTauri 18 52 +33.128
18 10 Pierre Gasly Alpine F1 Team 10 46
R 20 Kevin Magnussen Haas F1 Team 19 31 Retired
R 31 Esteban Ocon Alpine F1 Team 13 9 Retired
PosPilotoTeamQ1Q2Q3Diferencia con la pole
1 1 Max Verstappen Red Bull 1:29.428 1:27.702 1:26.720 POLE Q3
2 4 Lando Norris McLaren 1:28.917 1:28.042 1:26.961 +0.241 Q3
3 81 Oscar Piastri McLaren 1:29.874 1:27.845 1:27.092 +0.372 Q3
4 16 Charles Leclerc Ferrari 1:29.143 1:28.361 1:27.136 +0.416 Q3
5 55 Carlos Sainz Ferrari 1:29.865 1:28.265 1:27.148 +0.428 Q3
6 63 George Russell Mercedes 1:29.412 1:28.782 1:27.155 +0.435 Q3
7 44 Lewis Hamilton Mercedes 1:29.415 1:28.545 1:27.211 +0.491 Q3
8 23 Alexander Albon Williams 1:29.466 1:28.067 1:27.530 +0.810 Q3
9 14 Fernando Alonso Aston Martin 1:29.949 1:28.368 1:27.659 +0.939 Q3
10 10 Pierre Gasly Alpine F1 Team 1:29.533 1:28.751 1:27.689 +0.969 Q3
11 27 Nico Hülkenberg Haas F1 Team 1:29.603 1:28.896 +2.176 Q2
12 18 Lance Stroll Aston Martin 1:29.448 1:28.935 +2.215 Q2
13 31 Esteban Ocon Alpine F1 Team 1:29.700 1:28.956 +2.236 Q2
14 2 Logan Sargeant Williams 1:29.873 1:29.031 +2.311 Q2
15 11 Sergio Pérez Red Bull 1:29.968 +3.248 Q1
15 77 Valtteri Bottas Alfa Romeo 1:29.798 +3.078 Q1
16 22 Yuki Tsunoda AlphaTauri 1:30.025 +3.305 Q1
17 24 Guanyu Zhou Alfa Romeo 1:30.123 +3.403 Q1
18 21 Nyck de Vries AlphaTauri 1:30.513 +3.793 Q1
19 20 Kevin Magnussen Haas F1 Team 1:32.378 +5.658 Q1
Parrilla de salida
Oficial
Final grid as clasificado, including any desde el pit lane salidas. Source: Jolpica-F1. The arrow compares the grid slot with the clasificación classification; hover a drop to see the stewards document behind it.
No hay datos de esta sesión.
PosPilotoMejor vueltaDiferenciaVueltas
1 1 Max Verstappen 1:28.600 26
2 11 Sergio Pérez 1:29.048 +0.448 22
3 23 Alexander Albon 1:29.089 +0.489 22
4 14 Fernando Alonso 1:29.268 +0.668 21
5 16 Charles Leclerc 1:29.280 +0.680 25
6 31 Esteban Ocon 1:29.319 +0.719 23
7 55 Carlos Sainz 1:29.357 +0.757 25
8 4 Lando Norris 1:29.441 +0.841 25
9 18 Lance Stroll 1:29.471 +0.871 26
10 81 Oscar Piastri 1:29.658 +1.058 16
11 21 Nyck de Vries 1:29.691 +1.091 26
12 44 Lewis Hamilton 1:29.768 +1.168 23
13 10 Pierre Gasly 1:29.828 +1.228 24
14 63 George Russell 1:29.874 +1.274 28
15 77 Valtteri Bottas 1:30.090 +1.490 22
16 22 Yuki Tsunoda 1:30.092 +1.492 28
17 2 Logan Sargeant 1:30.124 +1.524 24
18 24 Guanyu Zhou 1:30.321 +1.721 20
19 20 Kevin Magnussen 1:30.385 +1.785 21
20 27 Nico Hülkenberg 1:30.591 +1.991 22
Classified by best lap · source OpenF1 (2023+)
PosPilotoMejor vueltaDiferenciaVueltas
1 1 Max Verstappen 1:28.078 27
2 55 Carlos Sainz 1:28.100 +0.022 29
3 23 Alexander Albon 1:28.296 +0.218 30
4 11 Sergio Pérez 1:28.342 +0.264 30
5 2 Logan Sargeant 1:28.766 +0.688 29
6 18 Lance Stroll 1:28.866 +0.788 30
7 27 Nico Hülkenberg 1:28.880 +0.802 28
8 10 Pierre Gasly 1:28.889 +0.811 27
9 81 Oscar Piastri 1:28.926 +0.848 29
10 14 Fernando Alonso 1:29.134 +1.056 26
11 24 Guanyu Zhou 1:29.225 +1.147 28
12 63 George Russell 1:29.238 +1.160 25
13 31 Esteban Ocon 1:29.242 +1.164 24
14 4 Lando Norris 1:29.260 +1.182 24
15 44 Lewis Hamilton 1:29.283 +1.205 24
16 77 Valtteri Bottas 1:29.378 +1.300 28
17 20 Kevin Magnussen 1:29.439 +1.361 20
18 22 Yuki Tsunoda 1:29.483 +1.405 25
19 21 Nyck de Vries 1:29.571 +1.493 29
Classified by best lap · source OpenF1 (2023+)
PosPilotoMejor vueltaDiferenciaVueltas
1 16 Charles Leclerc 1:27.419 24
2 23 Alexander Albon 1:27.592 +0.173 14
3 14 Fernando Alonso 1:27.784 +0.365 17
4 10 Pierre Gasly 1:27.893 +0.474 19
5 44 Lewis Hamilton 1:27.948 +0.529 16
6 55 Carlos Sainz 1:27.964 +0.545 21
7 2 Logan Sargeant 1:28.151 +0.732 16
8 1 Max Verstappen 1:28.266 +0.847 19
9 63 George Russell 1:28.284 +0.865 17
10 22 Yuki Tsunoda 1:28.337 +0.918 21
11 21 Nyck de Vries 1:28.504 +1.085 20
12 4 Lando Norris 1:28.563 +1.144 18
13 18 Lance Stroll 1:28.620 +1.201 15
14 11 Sergio Pérez 1:28.904 +1.485 19
15 20 Kevin Magnussen 1:29.207 +1.788 13
16 31 Esteban Ocon 1:29.233 +1.814 22
17 81 Oscar Piastri 1:29.437 +2.018 20
18 77 Valtteri Bottas 1:29.586 +2.167 15
19 27 Nico Hülkenberg 1:33.590 +6.171 13
20 24 Guanyu Zhou 1:53.169 +25.750 2
Classified by best lap · source OpenF1 (2023+)
#PilotoTiempo de vueltaVuelta
1 1 Max Verstappen 1:30.275 L42
2 1 Max Verstappen 1:30.348 L39
3 1 Max Verstappen 1:30.535 L43
4 4 Lando Norris 1:30.543 L43
5 44 Lewis Hamilton 1:30.545 L43
6 1 Max Verstappen 1:30.547 L40
7 1 Max Verstappen 1:30.648 L44
8 44 Lewis Hamilton 1:30.673 L41
9 1 Max Verstappen 1:30.688 L41
10 4 Lando Norris 1:30.760 L41
Top 10 más rápida race vueltas — #1 is the más rápida lap of la carrera(FL).
Paradas · cómo se comparan
30s 35s 40s mediana 28.8s Sergio Pérez · L28 · 28.060s Nyck de Vries · L27 · 28.242s Charles Leclerc · L18 · 28.244s Yuki Tsunoda · L14 · 28.353s Nyck de Vries · L32 · 28.413s Lando Norris · L33 · 28.438s Pierre Gasly · L31 · 28.458s Lance Stroll · L31 · 28.561s Yuki Tsunoda · L32 · 28.603s Oscar Piastri · L29 · 28.655s Fernando Alonso · L33 · 28.679s Guanyu Zhou · L33 · 28.709s Charles Leclerc · L32 · 28.805s Logan Sargeant · L29 · 28.847s Carlos Sainz · L26 · 28.869s Max Verstappen · L33 · 29.056s Lewis Hamilton · L33 · 29.169s Guanyu Zhou · L24 · 29.177s George Russell · L28 · 29.455s Alexander Albon · L32 · 29.634s Valtteri Bottas · L32 · 29.662s Nico Hülkenberg · L32 · 30.003s Guanyu Zhou · L36 · 34.374s Nico Hülkenberg · L7 · 41.972s
más rápida 28.060s Sergio Pérez más lenta 41.972s Nico Hülkenberg tiempo de paso por el desde el pit lane — un punto por parada
PilotoParadaVueltaTiempoPaso por el desde el pit lane
27 Nico Hülkenberg 1 7 15:14:17 41.972s
22 Yuki Tsunoda 1 14 15:25:15 28.353s
16 Charles Leclerc 1 18 15:31:08 28.244s
24 Guanyu Zhou 1 24 15:40:56 29.177s
55 Carlos Sainz 1 26 15:43:36 28.869s
21 Nyck de Vries 1 27 15:45:34 28.242s
63 George Russell 1 28 15:46:37 29.455s
11 Sergio Pérez 1 28 15:46:50 28.060s
81 Oscar Piastri 1 29 15:48:05 28.655s
2 Logan Sargeant 1 29 15:48:37 28.847s
18 Lance Stroll 1 31 15:51:39 28.561s
10 Pierre Gasly 1 31 15:51:30 28.458s
23 Alexander Albon 1 32 15:53:10 29.634s
77 Valtteri Bottas 1 32 15:53:38 29.662s
21 Nyck de Vries 2 32 15:53:55 28.413s
22 Yuki Tsunoda 2 32 15:53:48 28.603s
27 Nico Hülkenberg 2 32 15:54:11 30.003s
16 Charles Leclerc 2 32 15:53:11 28.805s
44 Lewis Hamilton 1 33 15:54:58 29.169s
1 Max Verstappen 1 33 15:54:29 29.056s
14 Fernando Alonso 1 33 15:55:09 28.679s
4 Lando Norris 1 33 15:54:43 28.438s
24 Guanyu Zhou 2 33 15:56:08 28.709s
24 Guanyu Zhou 3 36 16:02:39 34.374s
paradas
SG 10 20 30 40 L52
1
1
M32
S20·+3
4
1
M32
H20
44
1
M32
S20·+3
81
1
M28
H24
63
1
S27·+3
M25
11
1
M27
S25
14
1
M32·+1
S20·+3
23
1
M31
S21·+4
16
2
M17
H14
M21
55
1
M25
H27
2
1
M28
S24
77
1
H31
S21
27
2
H6
M25
S21
18
1
M30
S22·+3
24
3
M23
H9
S20·+3
22
2
S13
H18
S21
21
2
S26
M5
S21
10
1
M30
S16·+3
20
0
M31
31
0
S9
S Soft M Medium H Hard I Intermediate W Wet SC·VSC parada en boxes sanción cumplida en boxes
Carrera · ancho de barra = vueltas con ese juego, ·+N = montado usado con N vueltas previas · fuente OpenF1 (2023+)
Compuestos designados para este Gran Premio
C1 Duro C2 Medio C3 Blando
Pirelli designa tres de sus compuestos secos para cada prueba; cuanto mayor es el número C, más blando es el neumático. Documento FIA ↗
Más puestos ganados en pista
11
+15
P15→P6
24
+12
P17→P15
22
+9
P16→P16
2
+8
P14→P11
77
+8
P20→P12
16
+7
P4→P9
18
+7
P12→P14
21
+7
P18→P17
Más puestos perdidos
Pierre Gasly −14 Charles Leclerc −12 Yuki Tsunoda −12
Carrera · Suma de posiciones ganadas en pista vuelta a vuelta — se excluyen la vuelta de salida y las vueltas de boxes propias. Datos de vueltas de carrera desde 1996.
PilotoTipoVueltaCumplidaImpuestaMotivo
18 Lance Stroll Time penalty 50 Tras la carrera +5s · 2pt Causing a collision (5 second time penalty. 2 penalty points (total of 7 for the 12 month period).) Documento FIA ↗
Vuelta 50 · Cumplida Tras la carrera · +5s · 2pt Causing a collision (5 second time penalty. 2 penalty points (total of 7 for the 12 month period).) Documento FIA ↗
18 Lance Stroll Black-and-white flag warning 43 TRACK LIMITS
Vuelta 43 TRACK LIMITS
63 George Russell Black-and-white flag warning 48 TRACK LIMITS
Vuelta 48 TRACK LIMITS
4 Lando Norris Black-and-white flag warning 48 TRACK LIMITS
Vuelta 48 TRACK LIMITS
Vuelta = vuelta en que se impuso la sanción · Cumplida = vuelta en que se cumplió en boxes (en blanco: se sumó al tiempo de carrera)
Time, drive-through and stop-go penalties come from race control messages (OpenF1, 2023+). Parrilla penalties never appear there — the stewards publish them as documents after the session — so they are worked back from the starting grid against the clasificación classification, which gives places actually lost rather than the figure written in the decision.
PilotoTipoVueltaCumplidaImpuestaMotivo
77 Valtteri Bottas 실격 A 1.0 litre sample of fuel could not be provided. (Disqualification from the Clasificación Sesión) Documento FIA ↗
A 1.0 litre sample of fuel could not be provided. (Disqualification from the Clasificación Sesión) Documento FIA ↗
24 Guanyu Zhou No further action Car 24 impeded car 31 in turn 11. (No further action.) Documento FIA ↗
Car 24 impeded car 31 in turn 11. (No further action.) Documento FIA ↗
21 Nyck de Vries Fine €5,000 Unsafe release of car 21. (The competitor (Scuderia AlphaTauri) is fined €5,000.) Documento FIA ↗
€5,000 Unsafe release of car 21. (The competitor (Scuderia AlphaTauri) is fined €5,000.) Documento FIA ↗
Vuelta = vuelta en que se impuso la sanción · Cumplida = vuelta en que se cumplió en boxes (en blanco: se sumó al tiempo de carrera)
Time, drive-through and stop-go penalties come from race control messages (OpenF1, 2023+). Parrilla penalties never appear there — the stewards publish them as documents after the session — so they are worked back from the starting grid against the clasificación classification, which gives places actually lost rather than the figure written in the decision.
PilotoTipoVueltaCumplidaImpuestaMotivo
4 Lando Norris Black-and-white flag warning €1,000 Mechanic on track (Warning The competitor McLaren is fined €1,000) Documento FIA ↗
€1,000 Mechanic on track (Warning The competitor McLaren is fined €1,000) Documento FIA ↗
Vuelta = vuelta en que se impuso la sanción · Cumplida = vuelta en que se cumplió en boxes (en blanco: se sumó al tiempo de carrera)
Time, drive-through and stop-go penalties come from race control messages (OpenF1, 2023+). Parrilla penalties never appear there — the stewards publish them as documents after the session — so they are worked back from the starting grid against the clasificación classification, which gives places actually lost rather than the figure written in the decision.
PilotoTipoVueltaCumplidaImpuestaMotivo
11 Sergio Pérez Fine €100 Pit lane speeding – 80.9 km/h (The competitor (Oracle Red Bull Racing) is fined €100) Documento FIA ↗
€100 Pit lane speeding – 80.9 km/h (The competitor (Oracle Red Bull Racing) is fined €100) Documento FIA ↗
Vuelta = vuelta en que se impuso la sanción · Cumplida = vuelta en que se cumplió en boxes (en blanco: se sumó al tiempo de carrera)
Time, drive-through and stop-go penalties come from race control messages (OpenF1, 2023+). Parrilla penalties never appear there — the stewards publish them as documents after the session — so they are worked back from the starting grid against the clasificación classification, which gives places actually lost rather than the figure written in the decision.
PilotoTipoVueltaCumplidaImpuestaMotivo
44 Lewis Hamilton Amonestación Late attendance of the Thursday Press Conference. (Team reprimand.) Documento FIA ↗
Late attendance of the Thursday Press Conference. (Team reprimand.) Documento FIA ↗
Vuelta = vuelta en que se impuso la sanción · Cumplida = vuelta en que se cumplió en boxes (en blanco: se sumó al tiempo de carrera)
Time, drive-through and stop-go penalties come from race control messages (OpenF1, 2023+). Parrilla penalties never appear there — the stewards publish them as documents after the session — so they are worked back from the starting grid against the clasificación classification, which gives places actually lost rather than the figure written in the decision.
DocTítuloAsuntoPublished(CET)
Event Notes - Pirelli Preview ↗ 2023-07-05 17:41
2023-07-05 17:41 CET
Carrera Director's Event Notes ↗ 2023-07-06 12:30
2023-07-06 12:30 CET
Event Notes - Circuito Map, Pit Lane and Red Zone ↗ 2023-07-06 13:01
2023-07-06 13:01 CET
Car Display Procedure ↗ 2023-07-06 16:51
2023-07-06 16:51 CET
PU elements usados per driver up to now ↗ 2023-07-07 09:34
2023-07-07 09:34 CET
RNCs usados per driver up to now ↗ 2023-07-07 09:35
2023-07-07 09:35 CET
Self scrutineering ↗ 2023-07-07 11:28
2023-07-07 11:28 CET
Entry List ↗ 2023-07-07 11:30
2023-07-07 11:30 CET
Summons - Mercedes - Press Conference ↗ 2023-07-07 11:52
2023-07-07 11:52 CET
Carrera Director's Event Notes V2 ↗ 2023-07-07 12:31
2023-07-07 12:31 CET
Infringement - Mercedes - Thursday Press Conference ↗ 2023-07-07 13:11
2023-07-07 13:11 CET
New PU elements for this Competition ↗ 2023-07-07 13:33
2023-07-07 13:33 CET
New RNCs for this Competition ↗ 2023-07-07 13:35
2023-07-07 13:35 CET
P1 Classification ↗ 2023-07-07 14:46
2023-07-07 14:46 CET
Event Notes - Pit Lane Drawing V2 ↗ 2023-07-07 15:55
2023-07-07 15:55 CET
New RNCs for this Competition ↗ 2023-07-07 17:11
2023-07-07 17:11 CET
P2 Classification ↗ 2023-07-07 18:20
2023-07-07 18:20 CET
Event Notes - RD Communication No.1 ↗ 2023-07-07 19:04
2023-07-07 19:04 CET
Infringement - Car 11 - Pit Lane Speeding ↗ 11 Sergio Pérez 2023-07-07 19:04
11 Sergio Pérez 2023-07-07 19:04 CET
Carrera Director's Note - SC2-SC1 Time ↗ 2023-07-07 19:27
2023-07-07 19:27 CET
P1 and P2 scrutineering ↗ 2023-07-07 19:52
2023-07-07 19:52 CET
RNCs usados outside allocation ↗ 2023-07-07 19:55
2023-07-07 19:55 CET
Post-Clasificación Procedure ↗ 2023-07-08 08:58
2023-07-08 08:58 CET
Carrera Director's Note - Additional Intermediate Neumáticos ↗ 2023-07-08 10:30
2023-07-08 10:30 CET
Curfew ↗ 2023-07-08 11:01
2023-07-08 11:01 CET
New PU elements for this Competition ↗ 2023-07-08 12:41
2023-07-08 12:41 CET
New RNCs for this Competition ↗ 2023-07-08 12:42
2023-07-08 12:42 CET
Summons - McLaren - Pit Lane incident ↗ 2023-07-08 13:12
2023-07-08 13:12 CET
P3 Classification ↗ 2023-07-08 13:45
2023-07-08 13:45 CET
Infringement - McLaren - Pit Lane Incident ↗ 2023-07-08 14:07
2023-07-08 14:07 CET
Summons - Car 31 - Alleged Impeding by Car 24 ↗ 31 Esteban Ocon 2023-07-08 17:05
31 Esteban Ocon 2023-07-08 17:05 CET
Summons - Car 24 - Alleged Impeding of Car 31 ↗ 24 Guanyu Zhou 2023-07-08 17:05
24 Guanyu Zhou 2023-07-08 17:05 CET
Summons - AlphaTauri - Alleged Unsafe Release of Car 21 ↗ 21 Nyck de Vries 2023-07-08 17:05
21 Nyck de Vries 2023-07-08 17:05 CET
Provisional Clasificación Classification ↗ 2023-07-08 17:40
2023-07-08 17:40 CET
Clasificación Deleted Vuelta Times ↗ 2023-07-08 17:45
2023-07-08 17:45 CET
Fuel sample car 77 ↗ 77 Valtteri Bottas 2023-07-08 18:04
77 Valtteri Bottas 2023-07-08 18:04 CET
Infringement - Car 21 - Unsafe release ↗ 21 Nyck de Vries 2023-07-08 18:06
21 Nyck de Vries 2023-07-08 18:06 CET
Summons - Car 77 - Alleged failing to provide a fuel sample ↗ 77 Valtteri Bottas 2023-07-08 18:30
77 Valtteri Bottas 2023-07-08 18:30 CET
Decision - Car 24 - Impeding Car 31 ↗ 24 Guanyu Zhou 2023-07-08 19:02
24 Guanyu Zhou 2023-07-08 19:02 CET
Infringement - Car 77 - Failure to provide a fuel sample ↗ 77 Valtteri Bottas 2023-07-08 19:30
77 Valtteri Bottas 2023-07-08 19:30 CET
P3 and Clasificación scrutineering ↗ 2023-07-08 19:42
2023-07-08 19:42 CET
Final Clasificación Classification ↗ 2023-07-08 19:48
2023-07-08 19:48 CET
Provisional Starting Parrilla ↗ 2023-07-08 19:50
2023-07-08 19:50 CET
Pre-Carrera Procedure ↗ 2023-07-09 08:26
2023-07-09 08:26 CET
Post-Carrera Procedure ↗ 2023-07-09 08:59
2023-07-09 08:59 CET
Parts and parameters been replaced and or changed during Parc Fermé ↗ 2023-07-09 13:55
2023-07-09 13:55 CET
Final Starting Parrilla ↗ 2023-07-09 14:00
2023-07-09 14:00 CET
Provisional Carrera Classification ↗ 2023-07-09 17:50
2023-07-09 17:50 CET
Infringement - Car 18 - Causing a Collision ↗ 18 Lance Stroll 2023-07-09 18:03
18 Lance Stroll 2023-07-09 18:03 CET
Carrera Deleted Vuelta Times ↗ 2023-07-09 18:20
2023-07-09 18:20 CET
Carrera scrutineering ↗ 2023-07-09 20:14
2023-07-09 20:14 CET
Final Carrera Classification ↗ 2023-07-09 20:21
2023-07-09 20:21 CET
Campeonato Puntos ↗ 2023-07-09 20:25
2023-07-09 20:25 CET
FIA official decisions and documents (fia.com) · PDF original PDF links
Record Basis · Calculation basis
Carrera order is the final classification(post-race penalties applied) · clasificación session data 2003+ · lap times 1996+ · pit stops 2012+ (pit-lane transit, not stationary time) · Abandono = Finished(Finished·+N Vueltas) non-Finished statuses
Fuentes de datos: Jolpica-F1 (Ergast compatible API) · weather·Dirección de carrera OpenF1 (2023+) · Last fetched: 2026-09-05 14:15